Location: Unspecified
(0.0000°N, 0.0000°E)
Time: 22:09:40
(UTC+00:00)

ARGOS - Visible Passes

Search period start: 27 May 2024 00:00
Search period end: 06 June 2024 00:00
Orbit: 818 x 834 km, 98.4° (Epoch: 27 May)

Date Brightness Start Highest point End Pass type
(mag) Time Alt. Az. Time Alt. Az. Time Alt. Az.
27 May 4.7 04:00:56 10° NE 04:05:42 32° ESE 04:10:29 10° SSE visible
28 May 5.4 03:43:03 10° ENE 03:46:52 20° ESE 03:50:40 10° SSE visible
28 May 4.1 05:22:18 10° NNW 05:26:48 27° WNW 05:31:20 10° SW visible
29 May 5.9 03:26:24 10° E 03:28:02 11° ESE 03:29:40 10° ESE visible
29 May 3.5 05:02:50 10° N 05:07:57 45° WNW 05:13:07 10° SSW visible
30 May 3.1 04:43:43 10° N 04:49:06 77° WNW 04:54:31 10° SSW visible
31 May 3.5 04:24:54 10° NNE 04:30:14 65° ESE 04:35:37 10° S visible
01 Jun 4.4 04:06:24 10° NE 04:11:23 38° ESE 04:16:23 10° S visible
02 Jun 5.2 03:48:19 10° NE 03:52:32 23° ESE 03:56:47 10° SSE visible
02 Jun 4.3 05:28:19 10° NNW 05:32:29 23° WNW 05:36:43 10° SW visible
03 Jun 5.8 03:31:01 10° ENE 03:33:42 14° ESE 03:36:24 10° SE visible
03 Jun 3.7 05:08:41 10° N 05:13:38 38° WNW 05:18:38 10° SW visible
04 Jun 3.2 04:49:27 10° N 04:54:47 64° WNW 05:00:09 10° SSW visible
05 Jun 3.3 04:30:32 10° NNE 04:35:55 77° ESE 04:41:21 10° S visible
